Location: Newark
(46.7000°N, 60.6000°W)
Time: 08:55:39
(UTC+00:00)

Vanguard 3 - Pass Details

Date: 01 November 2020
Orbit: 508 x 3262 km, 33.3° (Epoch: 29 November)

Event Time Altitude Azimuth Distance (km) Brightness Sun altitude
Rises 14:59:38 0° 278° (W) 7,225 11.8 27.7°
Reaches altitude 10° 15:06:06 10° 266° (W) 6,175 11.6 27.9°
Maximum altitude 15:19:00 23° 224° (SW) 4,684 11.8 28.3°
Drops below altitude 10° 15:29:32 10° 180° (S) 4,925 12.9 28.5°
Sets 15:33:57 0° 166° (SSE) 5,502 12.6 28.5°
